| time (UTC) | temp F | wind direction | speed MPH | gust MPH | rain 1hr in | rain 24hr in | rain mn in | humidity % | barometer mb |
| 20260505075435 | 71 | 222 | 4.0 | 5.0 | 0.00 | 0.00 | 0.00 | 88 | 1008.8 |
| 20260505074932 | 70 | 212 | 7.0 | 10.0 | 0.00 | 0.00 | 0.00 | 88 | 1009.0 |
| 20260505074430 | 70 | 210 | 7.0 | 12.0 | 0.00 | 0.00 | 0.00 | 88 | 1008.6 |
| 20260505073926 | 71 | 161 | 2.0 | 2.0 | 0.00 | 0.00 | 0.00 | 87 | 1008.8 |
| 20260505073424 | 71 | 193 | 6.0 | 7.0 | 0.00 | 0.00 | 0.00 | 87 | 1008.9 |
| 20260505072921 | 71 | 175 | 4.0 | 7.0 | 0.00 | 0.00 | 0.00 | 87 | 1008.9 |
| 20260505072417 | 70 | 182 | 7.0 | 10.0 | 0.00 | 0.00 | 0.00 | 87 | 1009.0 |
| 20260505071913 | 70 | 180 | 2.0 | 3.0 | 0.00 | 0.00 | 0.00 | 87 | 1009.0 |
| 20260505071410 | 70 | 169 | 7.0 | 10.0 | 0.00 | 0.00 | 0.00 | 87 | 1009.3 |
| 20260505070908 | 70 | 161 | 3.0 | 5.0 | 0.00 | 0.00 | 0.00 | 87 | 1009.1 |
| 20260505070404 | 71 | 179 | 4.0 | 7.0 | 0.00 | 0.00 | 0.00 | 87 | 1009.2 |
| 20260505065900 | 70 | 170 | 6.0 | 10.0 | 0.00 | 0.00 | 0.00 | 87 | 1009.2 |
| 20260505065356 | 70 | 166 | 3.0 | 5.0 | 0.00 | 0.00 | 0.00 | 87 | 1009.2 |
| 20260505064853 | 70 | 180 | 7.0 | 10.0 | 0.00 | 0.00 | 0.00 | 87 | 1009.3 |
| 20260505064350 | 70 | 219 | 7.0 | 14.0 | 0.00 | 0.00 | 0.00 | 87 | 1009.3 |
| 20260505063849 | 70 | 149 | 2.0 | 3.0 | 0.00 | 0.00 | 0.00 | 87 | 1009.5 |
| 20260505063344 | 70 | 122 | 2.0 | 3.0 | 0.00 | 0.00 | 0.00 | 87 | 1009.7 |
| 20260505062841 | 71 | 177 | 3.0 | 5.0 | 0.00 | 0.00 | 0.00 | 87 | 1009.5 |
| 20260505062339 | 71 | 191 | 6.0 | 7.0 | 0.00 | 0.00 | 0.00 | 86 | 1009.7 |
| 20260505061835 | 71 | 192 | 8.0 | 10.0 | 0.00 | 0.00 | 0.00 | 86 | 1009.7 |
| 20260505061333 | 71 | 173 | 6.0 | 7.0 | 0.00 | 0.00 | 0.00 | 86 | 1009.6 |
| 20260505060831 | 71 | 159 | 5.0 | 7.0 | 0.00 | 0.00 | 0.00 | 86 | 1009.5 |
| 20260505060327 | 71 | 186 | 4.0 | 5.0 | 0.00 | 0.00 | 0.00 | 86 | 1009.6 |
| 20260505055823 | 71 | 200 | 11.0 | 21.0 | 0.00 | 0.00 | 0.00 | 86 | 1009.5 |
| 20260505055319 | 71 | 194 | 5.0 | 7.0 | 0.00 | 0.00 | 0.00 | 86 | 1009.8 |
| 20260505054817 | 71 | 152 | 2.0 | 3.0 | 0.00 | 0.00 | 0.00 | 86 | 1009.6 |
| 20260505054314 | 71 | 203 | 7.0 | 9.0 | 0.00 | 0.00 | 0.00 | 86 | 1009.7 |
| 20260505053812 | 71 | 175 | 3.0 | 3.0 | 0.00 | 0.00 | 0.00 | 86 | 1009.5 |
| 20260505053309 | 71 | 178 | 1.0 | 2.0 | 0.00 | 0.00 | 0.00 | 86 | 1009.6 |
| 20260505052806 | 71 | 155 | 6.0 | 9.0 | 0.00 | 0.00 | 0.00 | 86 | 1009.4 |
| 20260505052304 | 71 | 173 | 1.0 | 2.0 | 0.00 | 0.00 | 0.00 | 86 | 1009.4 |
| 20260505051800 | 71 | 158 | 4.0 | 5.0 | 0.00 | 0.00 | 0.00 | 86 | 1009.4 |
| 20260505051257 | 71 | 178 | 2.0 | 3.0 | 0.00 | 0.00 | 0.00 | 85 | 1009.3 |
| 20260505050755 | 71 | 169 | 4.0 | 5.0 | 0.00 | 0.00 | 0.00 | 84 | 1009.6 |
| 20260505050254 | 71 | 151 | 2.0 | 3.0 | 0.00 | 0.00 | 0.00 | 85 | 1009.3 |
| 20260505041723 | 73 | 175 | 7.0 | 10.0 | 0.00 | 0.00 | 0.00 | 82 | 1009.4 |
| 20260505041220 | 73 | 144 | 11.0 | 15.0 | 0.00 | 0.00 | 0.00 | 82 | 1009.3 |
| 20260505040718 | 73 | 181 | 7.0 | 9.0 | 0.00 | 0.00 | 0.00 | 82 | 1009.5 |
| 20260505040215 | 73 | 192 | 9.0 | 15.0 | 0.00 | 0.00 | 0.00 | 82 | 1009.4 |
| 20260505035712 | 73 | 155 | 0.0 | 0.0 | 0.00 | 0.00 | 0.00 | 82 | 1009.3 |
| 20260505035208 | 73 | 186 | 6.0 | 7.0 | 0.00 | 0.00 | 0.00 | 82 | 1009.3 |
| 20260505034704 | 73 | 155 | 0.0 | 2.0 | 0.00 | 0.00 | 0.00 | 81 | 1009.6 |
| 20260505034202 | 73 | 152 | 4.0 | 9.0 | 0.00 | 0.00 | 0.00 | 81 | 1009.5 |
| 20260505033657 | 73 | 185 | 4.0 | 7.0 | 0.00 | 0.00 | 0.00 | 81 | 1009.5 |
| 20260505033156 | 73 | 230 | 9.0 | 12.0 | 0.00 | 0.00 | 0.00 | 80 | 1009.6 |
| 20260505032654 | 73 | 146 | 4.0 | 5.0 | 0.00 | 0.00 | 0.00 | 81 | 1009.4 |
| 20260505032149 | 73 | 174 | 5.0 | 9.0 | 0.00 | 0.00 | 0.00 | 80 | 1009.6 |
| 20260505031647 | 73 | 172 | 4.0 | 5.0 | 0.00 | 0.00 | 0.00 | 80 | 1009.3 |
| 20260505031143 | 73 | 202 | 6.0 | 9.0 | 0.00 | 0.00 | 0.00 | 80 | 1009.3 |
| 20260505030640 | 73 | 162 | 3.0 | 7.0 | 0.00 | 0.00 | 0.00 | 80 | 1009.3 |
| 20260505030136 | 74 | 179 | 3.0 | 3.0 | 0.00 | 0.00 | 0.00 | 79 | 1009.5 |
| 20260505025632 | 74 | 157 | 9.0 | 12.0 | 0.00 | 0.00 | 0.00 | 79 | 1009.7 |
| 20260505025131 | 74 | 160 | 1.0 | 2.0 | 0.00 | 0.00 | 0.00 | 79 | 1009.7 |
| 20260505024628 | 74 | 142 | 4.0 | 7.0 | 0.00 | 0.00 | 0.00 | 79 | 1009.3 |
| 20260505024125 | 74 | 170 | 5.0 | 9.0 | 0.00 | 0.00 | 0.00 | 78 | 1009.2 |
| 20260505023622 | 74 | 173 | 2.0 | 3.0 | 0.00 | 0.00 | 0.00 | 78 | 1009.3 |
| 20260505023120 | 74 | 146 | 7.0 | 9.0 | 0.00 | 0.00 | 0.00 | 77 | 1009.2 |
| 20260505022617 | 74 | 161 | 5.0 | 9.0 | 0.00 | 0.00 | 0.00 | 77 | 1009.3 |
| 20260505022114 | 74 | 151 | 4.0 | 7.0 | 0.00 | 0.00 | 0.00 | 77 | 1009.0 |
| 20260505021610 | 75 | 184 | 2.0 | 3.0 | 0.00 | 0.00 | 0.00 | 76 | 1009.1 |
| 20260505021107 | 75 | 145 | 5.0 | 5.0 | 0.00 | 0.00 | 0.00 | 76 | 1009.0 |
| 20260505020603 | 75 | 163 | 3.0 | 7.0 | 0.00 | 0.00 | 0.00 | 75 | 1008.8 |
| 20260505020059 | 75 | 181 | 4.0 | 7.0 | 0.00 | 0.00 | 0.00 | 75 | 1009.1 |
| 20260505015556 | 75 | 184 | 3.0 | 5.0 | 0.00 | 0.00 | 0.00 | 74 | 1008.8 |
| 20260505015053 | 75 | 155 | 2.0 | 2.0 | 0.00 | 0.00 | 0.00 | 74 | 1008.8 |
| 20260505014550 | 75 | 191 | 7.0 | 9.0 | 0.00 | 0.00 | 0.00 | 73 | 1008.8 |
| 20260505014047 | 76 | 193 | 5.0 | 7.0 | 0.00 | 0.00 | 0.00 | 73 | 1008.8 |
| 20260505013544 | 76 | 165 | 2.0 | 3.0 | 0.00 | 0.00 | 0.00 | 72 | 1008.9 |
| 20260505013041 | 76 | 155 | 2.0 | 3.0 | 0.00 | 0.00 | 0.00 | 72 | 1009.0 |
| 20260505012539 | 76 | 154 | 0.0 | 2.0 | 0.00 | 0.00 | 0.00 | 72 | 1009.0 |
| 20260505012036 | 76 | 161 | 2.0 | 3.0 | 0.00 | 0.00 | 0.00 | 72 | 1008.9 |
| 20260505011536 | 76 | 188 | 2.0 | 3.0 | 0.00 | 0.00 | 0.00 | 71 | 1008.9 |
| 20260505011034 | 76 | 164 | 2.0 | 2.0 | 0.00 | 0.00 | 0.00 | 71 | 1008.9 |
| 20260505010529 | 77 | 174 | 2.0 | 3.0 | 0.00 | 0.00 | 0.00 | 71 | 1008.9 |
| 20260505010026 | 77 | 236 | 6.0 | 10.0 | 0.00 | 0.00 | 0.00 | 70 | 1008.9 |
| 20260505005522 | 77 | 163 | 5.0 | 7.0 | 0.00 | 0.00 | 0.00 | 70 | 1008.7 |
| 20260505005020 | 78 | 155 | 3.0 | 5.0 | 0.00 | 0.00 | 0.00 | 70 | 1009.0 |
| 20260505004517 | 78 | 165 | 2.0 | 3.0 | 0.00 | 0.00 | 0.00 | 69 | 1008.8 |
| 20260505004014 | 78 | 160 | 4.0 | 7.0 | 0.00 | 0.00 | 0.00 | 69 | 1009.0 |
| 20260505003511 | 78 | 159 | 5.0 | 7.0 | 0.00 | 0.00 | 0.00 | 68 | 1008.7 |
| 20260505003008 | 78 | 193 | 3.0 | 5.0 | 0.00 | 0.00 | 0.00 | 68 | 1008.8 |
| 20260505002503 | 78 | 190 | 8.0 | 10.0 | 0.00 | 0.00 | 0.00 | 67 | 1008.6 |
| 20260505002002 | 79 | 178 | 7.0 | 9.0 | 0.00 | 0.00 | 0.00 | 67 | 1008.8 |
| 20260505001459 | 79 | 188 | 4.0 | 10.0 | 0.00 | 0.00 | 0.00 | 67 | 1008.7 |
| 20260505000955 | 79 | 179 | 7.0 | 9.0 | 0.00 | 0.00 | 0.00 | 66 | 1008.7 |
| 20260505000454 | 80 | 155 | 10.0 | 12.0 | 0.00 | 0.00 | 0.00 | 65 | 1009.0 |
| 20260504235950 | 80 | 188 | 4.0 | 7.0 | 0.00 | 0.00 | 0.00 | 66 | 1009.0 |
| 20260504235448 | 80 | 162 | 3.0 | 5.0 | 0.00 | 0.00 | 0.00 | 65 | 1009.0 |
| 20260504234944 | 80 | 143 | 4.0 | 5.0 | 0.00 | 0.00 | 0.00 | 65 | 1009.2 |
| 20260504234441 | 80 | 131 | 6.0 | 9.0 | 0.00 | 0.00 | 0.00 | 65 | 1009.3 |
| 20260504233938 | 80 | 224 | 7.0 | 10.0 | 0.00 | 0.00 | 0.00 | 64 | 1009.2 |
| 20260504233433 | 80 | 122 | 3.0 | 3.0 | 0.00 | 0.00 | 0.00 | 64 | 1009.2 |
| 20260504232931 | 80 | 217 | 6.0 | 9.0 | 0.00 | 0.00 | 0.00 | 64 | 1009.4 |
| 20260504232428 | 81 | 189 | 9.0 | 15.0 | 0.00 | 0.00 | 0.00 | 64 | 1009.4 |
| 20260504231925 | 81 | 197 | 6.0 | 7.0 | 0.00 | 0.00 | 0.00 | 63 | 1009.2 |
| 20260504231421 | 80 | 173 | 6.0 | 9.0 | 0.00 | 0.00 | 0.00 | 64 | 1009.2 |
| 20260504230917 | 80 | 196 | 11.0 | 14.0 | 0.00 | 0.00 | 0.00 | 63 | 1009.4 |
| 20260504230415 | 80 | 209 | 8.0 | 10.0 | 0.00 | 0.00 | 0.00 | 64 | 1009.2 |
| 20260504225913 | 81 | 228 | 10.0 | 15.0 | 0.00 | 0.00 | 0.00 | 62 | 1009.4 |
| 20260504225410 | 81 | 180 | 4.0 | 5.0 | 0.00 | 0.00 | 0.00 | 63 | 1009.4 |
| 20260504224907 | 81 | 187 | 8.0 | 10.0 | 0.00 | 0.00 | 0.00 | 62 | 1009.6 |
| 20260504224403 | 81 | 161 | 3.0 | 3.0 | 0.00 | 0.00 | 0.00 | 65 | 1009.5 |
| 20260504223901 | 81 | 181 | 7.0 | 9.0 | 0.00 | 0.00 | 0.00 | 64 | 1009.6 |
| 20260504223356 | 81 | 193 | 7.0 | 10.0 | 0.00 | 0.00 | 0.00 | 63 | 1009.9 |
| 20260504222852 | 81 | 215 | 7.0 | 9.0 | 0.00 | 0.00 | 0.00 | 62 | 1009.8 |
| 20260504222349 | 81 | 180 | 7.0 | 12.0 | 0.00 | 0.00 | 0.00 | 62 | 1009.8 |
| 20260504221848 | 82 | 154 | 6.0 | 7.0 | 0.00 | 0.00 | 0.00 | 61 | 1009.7 |
| 20260504221344 | 81 | 203 | 5.0 | 5.0 | 0.00 | 0.00 | 0.00 | 63 | 1009.8 |
| 20260504220842 | 82 | 221 | 5.0 | 5.0 | 0.00 | 0.00 | 0.00 | 62 | 1009.8 |
| 20260504220338 | 82 | 186 | 9.0 | 12.0 | 0.00 | 0.00 | 0.00 | 61 | 1009.8 |
| 20260504215835 | 81 | 165 | 3.0 | 3.0 | 0.00 | 0.00 | 0.00 | 63 | 1009.9 |
| 20260504215331 | 82 | 204 | 6.0 | 9.0 | 0.00 | 0.00 | 0.00 | 61 | 1009.8 |
| 20260504214828 | 81 | 197 | 10.0 | 14.0 | 0.00 | 0.00 | 0.00 | 61 | 1009.8 |
| 20260504214325 | 81 | 147 | 9.0 | 14.0 | 0.00 | 0.00 | 0.00 | 60 | 1009.9 |
| 20260504213821 | 81 | 223 | 10.0 | 14.0 | 0.00 | 0.00 | 0.00 | 62 | 1010.2 |
| 20260504213317 | 81 | 220 | 7.0 | 10.0 | 0.00 | 0.00 | 0.00 | 62 | 1010.3 |
| 20260504212815 | 82 | 124 | 8.0 | 15.0 | 0.00 | 0.00 | 0.00 | 63 | 1010.4 |
| 20260504212311 | 82 | 256 | 6.0 | 10.0 | 0.00 | 0.00 | 0.00 | 60 | 1010.5 |
| 20260504211809 | 80 | 158 | 7.0 | 9.0 | 0.00 | 0.00 | 0.00 | 62 | 1010.5 |
| 20260504211304 | 80 | 135 | 9.0 | 10.0 | 0.00 | 0.00 | 0.00 | 62 | 1010.5 |
| 20260504210802 | 81 | 163 | 2.0 | 3.0 | 0.00 | 0.00 | 0.00 | 64 | 1010.7 |
| 20260504210259 | 81 | 202 | 7.0 | 10.0 | 0.00 | 0.00 | 0.00 | 61 | 1010.8 |
| 20260504205756 | 81 | 164 | 2.0 | 3.0 | 0.00 | 0.00 | 0.00 | 64 | 1010.9 |
| 20260504205254 | 81 | 183 | 5.0 | 5.0 | 0.00 | 0.00 | 0.00 | 62 | 1011.0 |
| 20260504204752 | 81 | 200 | 5.0 | 7.0 | 0.00 | 0.00 | 0.00 | 63 | 1011.2 |
| 20260504204250 | 81 | 188 | 7.0 | 10.0 | 0.00 | 0.00 | 0.00 | 63 | 1011.4 |
| 20260504203749 | 81 | 180 | 6.0 | 9.0 | 0.00 | 0.00 | 0.00 | 64 | 1011.3 |
| 20260504203246 | 81 | 134 | 9.0 | 14.0 | 0.00 | 0.00 | 0.00 | 61 | 1011.5 |
| 20260504202741 | 81 | 183 | 4.0 | 7.0 | 0.00 | 0.00 | 0.00 | 64 | 1011.6 |
| 20260504202239 | 81 | 170 | 6.0 | 12.0 | 0.00 | 0.00 | 0.00 | 61 | 1011.8 |
| 20260504201736 | 80 | 172 | 9.0 | 12.0 | 0.00 | 0.00 | 0.00 | 63 | 1011.8 |
| 20260504201233 | 80 | 209 | 7.0 | 14.0 | 0.00 | 0.00 | 0.00 | 64 | 1011.8 |
| 20260504200731 | 79 | 253 | 6.0 | 9.0 | 0.00 | 0.00 | 0.00 | 64 | 1012.1 |
| 20260504200226 | 80 | 179 | 8.0 | 10.0 | 0.00 | 0.00 | 0.00 | 62 | 1012.1 |
| 20260504195723 | 80 | 190 | 6.0 | 9.0 | 0.00 | 0.00 | 0.00 | 64 | 1012.4 |
| 20260504195219 | 79 | 165 | 6.0 | 7.0 | 0.00 | 0.00 | 0.00 | 65 | 1012.4 |
| 20260504194716 | 79 | 208 | 4.0 | 5.0 | 0.00 | 0.00 | 0.00 | 65 | 1012.4 |
| 20260504194212 | 78 | 204 | 5.0 | 7.0 | 0.00 | 0.00 | 0.00 | 65 | 1012.5 |
| 20260504193709 | 79 | 172 | 3.0 | 5.0 | 0.00 | 0.00 | 0.00 | 67 | 1012.6 |
| 20260504193206 | 79 | 147 | 6.0 | 9.0 | 0.00 | 0.00 | 0.00 | 64 | 1012.8 |
| 20260504192704 | 81 | 241 | 7.0 | 9.0 | 0.00 | 0.00 | 0.00 | 63 | 1012.6 |
| 20260504192202 | 80 | 274 | 7.0 | 10.0 | 0.00 | 0.00 | 0.00 | 63 | 1012.9 |
| 20260504191701 | 80 | 228 | 3.0 | 3.0 | 0.00 | 0.00 | 0.00 | 65 | 1012.9 |
| 20260504191156 | 78 | 184 | 5.0 | 7.0 | 0.00 | 0.00 | 0.00 | 65 | 1013.0 |
| 20260504190652 | 78 | 163 | 0.0 | 2.0 | 0.00 | 0.00 | 0.00 | 64 | 1013.1 |
| 20260504190149 | 79 | 214 | 8.0 | 14.0 | 0.00 | 0.00 | 0.00 | 64 | 1013.0 |
| 20260504185645 | 80 | 180 | 10.0 | 14.0 | 0.00 | 0.00 | 0.00 | 64 | 1013.0 |
| 20260504185142 | 79 | 262 | 7.0 | 12.0 | 0.00 | 0.00 | 0.00 | 65 | 1013.2 |
| 20260504184638 | 78 | 204 | 7.0 | 12.0 | 0.00 | 0.00 | 0.00 | 65 | 1013.3 |
| 20260504184132 | 79 | 213 | 12.0 | 14.0 | 0.00 | 0.00 | 0.00 | 63 | 1013.2 |
| 20260504183630 | 79 | 237 | 14.0 | 17.0 | 0.00 | 0.00 | 0.00 | 63 | 1013.3 |
| 20260504183127 | 78 | 221 | 6.0 | 10.0 | 0.00 | 0.00 | 0.00 | 65 | 1013.2 |
| 20260504182625 | 77 | 245 | 9.0 | 12.0 | 0.00 | 0.00 | 0.00 | 65 | 1013.3 |
| 20260504182122 | 77 | 230 | 8.0 | 14.0 | 0.00 | 0.00 | 0.00 | 66 | 1013.7 |
| 20260504181620 | 77 | 244 | 10.0 | 12.0 | 0.00 | 0.00 | 0.00 | 65 | 1013.6 |
| 20260504181117 | 79 | 255 | 8.0 | 15.0 | 0.00 | 0.00 | 0.00 | 63 | 1013.7 |
| 20260504180616 | 77 | 215 | 5.0 | 5.0 | 0.00 | 0.00 | 0.00 | 69 | 1013.9 |
| 20260504180115 | 78 | 240 | 12.0 | 15.0 | 0.00 | 0.00 | 0.00 | 64 | 1013.8 |
| 20260504175611 | 78 | 217 | 11.0 | 15.0 | 0.00 | 0.00 | 0.00 | 65 | 1014.0 |
| 20260504175108 | 78 | 177 | 7.0 | 10.0 | 0.00 | 0.00 | 0.00 | 65 | 1014.2 |
| 20260504174606 | 77 | 188 | 6.0 | 7.0 | 0.00 | 0.00 | 0.00 | 68 | 1014.1 |
| 20260504174102 | 77 | 173 | 6.0 | 10.0 | 0.00 | 0.00 | 0.00 | 68 | 1014.2 |
| 20260504173559 | 76 | 193 | 9.0 | 10.0 | 0.00 | 0.00 | 0.00 | 67 | 1014.3 |
| 20260504173057 | 77 | 208 | 5.0 | 9.0 | 0.00 | 0.00 | 0.00 | 67 | 1014.4 |
| 20260504172553 | 75 | 217 | 8.0 | 12.0 | 0.00 | 0.00 | 0.00 | 68 | 1014.2 |
| 20260504172050 | 75 | 208 | 8.0 | 10.0 | 0.00 | 0.00 | 0.00 | 68 | 1014.4 |
| 20260504171546 | 75 | 225 | 6.0 | 7.0 | 0.00 | 0.00 | 0.00 | 68 | 1014.4 |
| 20260504171043 | 76 | 224 | 13.0 | 15.0 | 0.00 | 0.00 | 0.00 | 67 | 1014.4 |
| 20260504170539 | 76 | 217 | 14.0 | 19.0 | 0.00 | 0.00 | 0.00 | 66 | 1014.4 |
| 20260504150923 | 72 | 205 | 8.0 | 12.0 | 0.00 | 0.00 | 0.00 | 68 | 1015.6 |
| 20260504150420 | 71 | 179 | 3.0 | 5.0 | 0.00 | 0.00 | 0.00 | 70 | 1015.5 |
| 20260504140846 | 68 | 170 | 6.0 | 10.0 | 0.00 | 0.00 | 0.00 | 72 | 1015.8 |
| 20260504140342 | 68 | 201 | 5.0 | 7.0 | 0.00 | 0.00 | 0.00 | 72 | 1015.5 |
| 20260504130811 | 62 | 178 | 1.0 | 3.0 | 0.00 | 0.00 | 0.00 | 81 | 1015.5 |
| 20260504130307 | 62 | 145 | 2.0 | 3.0 | 0.00 | 0.00 | 0.00 | 82 | 1015.5 |
| 20260504120231 | 58 | 147 | 1.0 | 2.0 | 0.00 | 0.00 | 0.00 | 86 | 1015.0 |
| 20260504110658 | 59 | 157 | 2.0 | 3.0 | 0.00 | 0.00 | 0.00 | 85 | 1015.0 |
| 20260504110154 | 59 | 159 | 1.0 | 2.0 | 0.00 | 0.00 | 0.00 | 85 | 1015.0 |
| 20260504100119 | 60 | 174 | 4.0 | 7.0 | 0.00 | 0.00 | 0.00 | 83 | 1015.6 |
| 20260504081512 | 61 | 159 | 2.0 | 2.0 | 0.00 | 0.00 | 0.00 | 82 | 1015.9 |
| 20260504081007 | 61 | 166 | 1.0 | 2.0 | 0.00 | 0.00 | 0.00 | 82 | 1016.0 |
| 20260504080504 | 61 | 159 | 2.0 | 3.0 | 0.00 | 0.00 | 0.00 | 82 | 1016.0 |